"Pseudo-MPEC" for C0MG3X2

Created 2019 May 21 8:07:04 UT using Find_Orb

Click here for an explanation of pseudo-MPECs

 
 Astrometry: 
     C0MG3X2  C2019 05 13.33142 15 51 07.02 +29 20 43.7    ~5D8q 20.8 GVNEOCPG96
     C0MG3X2  C2019 05 13.33707 15 51 04.52 +29 20 06.4    ~5D8q 21.5 GVNEOCPG96
     C0MG3X2  C2019 05 13.34272 15 51 02.08 +29 19 28.9    ~5D8q 21.1 GVNEOCPG96
     C0MG3X2  C2019 05 13.34836 15 50 59.62 +29 18 50.9    ~5D8q 21.1 GVNEOCPG96
     C0MG3X2  C2019 05 13.44841 15 50 16.12 +29 07 39.5    ~5DBM 21.0 GVNEOCPI52
     C0MG3X2  C2019 05 13.45174 15 50 14.69 +29 07 17.5    ~5DBM 20.9 GVNEOCPI52
     C0MG3X2  C2019 05 13.45507 15 50 13.29 +29 06 55.2    ~5DBM 20.9 GVNEOCPI52
     C0MG3X2  C2019 05 13.45840 15 50 11.85 +29 06 32.6    ~5DBM 20.4 GVNEOCPI52
     C0MG3X2  C2019 05 14.16022015 45 30.95 +27 49 54.2    ~5E4b 20.6 GVNEOCPH01
     C0MG3X2  C2019 05 14.16731015 45 28.11 +27 49 09.0    ~5E4b 20.3 GVNEOCPH01
     C0MG3X2  C2019 05 14.17353815 45 25.64 +27 48 29.4    ~5E4b 20.5 GVNEOCPH01
     C0MG3X2 KC2019 05 14f2jg'Md)+s$Ecrsos(L7EYen$Im:a+ZsOGT#e].^.!4'=]T/kyhVH21
     C0MG3X2  C2019 05 14.18074815 45 22.76 +27 47 43.3    ~5E4b 20.7 GVNEOCPH01
     C0MG3X2 KC2019 05 14mF%a:@FtmvAHSAstrometry,_;D!IiP=L+=[v#-d$2%SK9F!ZHTAH21
     C0MG3X2 KC2019 05 15.05619515 39 53.44 +26 15 35.4    ~5F37 20.6 GVNEOCPJ95
     C0MG3X2 KC2019 05 15.07955315 39 44.83 +26 13 10.3    ~5F37 20.4 GVNEOCPJ95
     C0MG3X2 KC2019 05 15.09130415 39 40.50 +26 11 58.1    ~5F37 20.4 GVNEOCPJ95
     C0MG3X2 KC2019 05 15bp?=??-J]Y/To_KLliP%no2s.2uB[)=wy]:s!w9[,n*ksV^ba=00291
     C0MG3X2 KC2019 05 15O)a$:vbredacted;2Maoh4Ki1e$=3.c`?GHZXjGabb@_\hfC]TXc291
     C0MG3X2  C2019 05 15.25641 15 38 43.54 +25 55 14.4    ~5F6q 21.1 GVNEOCPI52
     C0MG3X2  C2019 05 15.26002 15 38 42.22 +25 54 51.5    ~5F6q 20.9 GVNEOCPI52
     C0MG3X2  C2019 05 15.26363 15 38 40.83 +25 54 30.3    ~5F6q 20.1 GVNEOCPI52
     C0MG3X2 KC2019 05 15xCNVa;?J!8K#ri[bjvJRpkRIXP,fbclickI+QuFl:Jm,uJ$+@.\D291
     C0MG3X2  C2019 05 15.26724 15 38 39.78 +25 54 13.4    ~5F6q       VNEOCPI52
     C0MG3X2  C2019 05 15.27130 15 38 38.09 +25 53 43.6    ~5F7M 20.4 GVNEOCPI52
     C0MG3X2  C2019 05 15.27297 15 38 37.55 +25 53 33.3    ~5F7M       VNEOCPI52
     C0MG3X2  C2019 05 16.31821 15 32 47.95 +24 09 47.6    ~5G8M       VNEOCPI52
     C0MG3X2  C2019 05 16.32057 15 32 47.08 +24 09 32.8    ~5G8M       VNEOCPI52
     C0MG3X2  C2019 05 16.32529 15 32 45.55 +24 09 06.7    ~5G8M 21.1 GVNEOCPI52
     C0MG3X2 pC2019 05 16;RJ,_sd5Z+Q]I\5D]'8-OD]y!_BdAf%Mk1fPUR[,6*C%)`ugitJCL01
     C0MG3X2 IC2019 05 16vL(sj#9o*^ZKW0cEghereS*0Xgjfor?bW.\(Q3.3`xjyGu8'FolXL01
     C0MG3X2 KC2019 05 16kmfuWDbG=%YL;aWNIexplanationE4G5hH0Z)0)O7;A^'pL3ci8BL01
     C0MG3X2 pC2019 05 16oS]'\,LJ-;l/L96Uh'q/fRZ($mEH_Bq8%xNf$yM@k]FrP6'R(^+bL01

Station data:
(291) LPL/Spacewatch II  (N31.961669 W111.599905)  US/Arizona.  Observers J.
   V. Scotti, R. S. McMillan. 1.8-m f/2.7 reflector + CCD.
(G96) Mt. Lemmon Survey  (N32.442754 W110.788720)  US/Arizona.  Observers T.
   A. Pruyne, B. M. Africano, E. J. Christensen, G. A. Farneth, D. C. Fuls,
   A. R. Gibbs, A. D. Grauer, H. Groeller, J. A. Johnson, R. A. Kowalski, S.
   M. Larson, G. J. Leonard, R. L. Seaman, F. C. Shelly. 1.5-m reflector +
   10K CCD.
(H01) Magdalena Ridge Observatory, Socorro  (N33.984833 W107.189333)  US/New
   Mexico.  Observers W. H. Ryan, E. V. Ryan. Measurer W. H. Ryan. 2.4-m
   f/8.9 reflector + CCD.
(H21) Astronomical Research Observatory, Westfield  (N39.483057 W87.968270)
   US/Illinois. 0.76-m f/3.0 astrograph + CCD.
(I52) Steward Observatory, Mt. Lemmon Station  (N32.442547 W110.788920)
   US/Arizona.  Observers T. A. Pruyne, B. M. Africano, E. J. Christensen, G.
   A. Farneth, D. C. Fuls, A. R. Gibbs, A. D. Grauer, H. Groeller, J. A.
   Johnson, R. A. Kowalski, S. M. Larson, G. J. Leonard, R. L. Seaman, F. C.
   Shelly. 1.0-m reflector + CCD.
(J95) Great Shefford  (N51.474969 W1.447003)  UK.  Observer P. Birtwhistle.
   0.40-m f/6.0 Schmidt-Cassegrain + CCD.
(L01) Višnjan Observatory, Tičan  (N45.290900 E13.749300)  Croatia.
   Observers K. Korlević, E. Pettarin. Measurer E. Pettarin. 1.0-m f/2.9
   reflector + CCD.

Orbital elements:  C0MG3X2
   Perihelion 2019 Mar 11.210659 +/- 0.222 TT =  5:03:21 (JD 2458553.710659)
Epoch 2019 May 16.0 TT = JDT 2458619.5   Earth MOID: 0.1887   AutoNEOCP
M  35.02540450 +/- 0.7              (J2000 ecliptic)
n   0.53238722 +/- 0.00938          Peri.   17.68766 +/- 0.30
a   1.50770936 +/- 0.0177           Node    89.66283 +/- 0.31
e   0.7205663 +/- 0.00483           Incl.   14.26845 +/- 0.19
P   1.85/676.19d           H 22.1   G  0.15   U  9.6  
q 0.42130466 +/- 0.00231    Q 2.59411406 +/- 0.0373
From 33 observations 2019 May 13-16; mean residual 0".79
Residuals in arcseconds: 
190513 G96  .08+  .57-    190514 H21  .21-  .05-    190515 291  .10+  .04-    
190513 G96  .18-  .06-    190514 H01  .34-  .30-    190515 I52  2.6+  4.9+    
190513 G96  .32+  .26+    190514 H21  .16-  .07+    190515 I52  .34-  .16-    
190513 G96  .48+  .02+    190515 J95  .41+  .19+    190515 I52  .56+  .29-    
190513 I52  .14+  .25-    190515 J95  .12-  .25-    190516 I52  .74+  .39-    
190513 I52  .16+  .11+    190515 J95  .53-  .34+    190516 I52  .51-  1.5-    
190513 I52  .55+  .18+    190515 291  .15+  .42-    190516 I52  .15-  .18-    
190513 I52  .40+  .04-    190515 291  .09-  .58-    190516 L01  .06+  .47+    
190514 H01  .42-  .31-    190515 I52  .16+  .06-    190516 L01  .76+  .30-    
190514 H01  .56-  .30-    190515 I52  .06+  .98-    190516 L01  .15-  .40-    
190514 H01  .34-  .18-    190515 I52  .99-  .19-    190516 L01  .10-  .27+    

Ephemerides (geocentric):
Date (UTC) HH   RA              Dec         delta   r     elong  mag " sig PA
---- -- -- --  -------------   -----------  ------ ------ -----  --- ---- ---
2019 05 21 08  15 11 30.289   +17 03 26.24  .33001 1.2872 141.7 21.5 1.76 152
2019 05 21 09  15 11 21.874   +17 00 20.89  .33048 1.2877 141.7 21.5 1.78 152
2019 05 21 10  15 11 13.489   +16 57 15.95  .33095 1.2882 141.7 21.5 1.81 152
2019 05 21 11  15 11 05.135   +16 54 11.42  .33142 1.2887 141.7 21.5 1.84 152
2019 05 21 12  15 10 56.810   +16 51 07.29  .33189 1.2892 141.7 21.5 1.86 152
2019 05 21 13  15 10 48.516   +16 48 03.57  .33236 1.2896 141.8 21.5 1.89 152
2019 05 21 14  15 10 40.251   +16 45 00.26  .33283 1.2901 141.8 21.5 1.92 152
2019 05 21 15  15 10 32.016   +16 41 57.35  .33330 1.2906 141.8 21.5 1.94 152
2019 05 21 16  15 10 23.810   +16 38 54.85  .33378 1.2911 141.8 21.5 1.97 152
2019 05 21 17  15 10 15.633   +16 35 52.74  .33425 1.2916 141.9 21.5 2.00 152
2019 05 21 18  15 10 07.486   +16 32 51.04  .33473 1.2920 141.9 21.5 2.02 152
2019 05 21 19  15 09 59.368   +16 29 49.74  .33520 1.2925 141.9 21.5 2.05 152
2019 05 21 20  15 09 51.279   +16 26 48.84  .33568 1.2930 141.9 21.5 2.08 152
2019 05 21 21  15 09 43.219   +16 23 48.34  .33615 1.2935 141.9 21.6 2.11 152
2019 05 21 22  15 09 35.187   +16 20 48.23  .33663 1.2940 142.0 21.6 2.14 152
2019 05 21 23  15 09 27.184   +16 17 48.52  .33710 1.2944 142.0 21.6 2.16 152
2019 05 22 00  15 09 19.210   +16 14 49.21  .33758 1.2949 142.0 21.6 2.19 152
2019 05 22 01  15 09 11.264   +16 11 50.29  .33806 1.2954 142.0 21.6 2.22 152
2019 05 22 02  15 09 03.347   +16 08 51.76  .33854 1.2959 142.0 21.6 2.25 152
2019 05 22 03  15 08 55.457   +16 05 53.63  .33901 1.2964 142.0 21.6 2.28 152
2019 05 22 04  15 08 47.596   +16 02 55.88  .33949 1.2968 142.1 21.6 2.31 152
2019 05 22 05  15 08 39.763   +15 59 58.53  .33997 1.2973 142.1 21.6 2.34 152
2019 05 22 06  15 08 31.957   +15 57 01.57  .34045 1.2978 142.1 21.6 2.37 152
2019 05 22 07  15 08 24.180   +15 54 05.00  .34093 1.2983 142.1 21.6 2.40 152
2019 05 22 08  15 08 16.429   +15 51 08.81  .34141 1.2988 142.1 21.6 2.43 152
2019 05 22 09  15 08 08.707   +15 48 13.01  .34190 1.2992 142.2 21.6 2.46 152
2019 05 22 10  15 08 01.012   +15 45 17.59  .34238 1.2997 142.2 21.6 2.49 152
2019 05 22 11  15 07 53.344   +15 42 22.56  .34286 1.3002 142.2 21.6 2.52 152
2019 05 22 12  15 07 45.703   +15 39 27.92  .34334 1.3007 142.2 21.6 2.55 152
2019 05 22 13  15 07 38.090   +15 36 33.65  .34383 1.3012 142.2 21.6 2.58 152
2019 05 22 14  15 07 30.503   +15 33 39.77  .34431 1.3016 142.2 21.6 2.61 152
2019 05 22 15  15 07 22.944   +15 30 46.27  .34479 1.3021 142.2 21.6 2.64 152
2019 05 22 16  15 07 15.411   +15 27 53.14  .34528 1.3026 142.3 21.6 2.67 152
2019 05 22 17  15 07 07.905   +15 25 00.40  .34576 1.3031 142.3 21.6 2.70 152
2019 05 22 18  15 07 00.425   +15 22 08.03  .34625 1.3035 142.3 21.6 2.73 152
2019 05 22 19  15 06 52.972   +15 19 16.04  .34674 1.3040 142.3 21.6 2.77 152
2019 05 22 20  15 06 45.545   +15 16 24.43  .34722 1.3045 142.3 21.6 2.80 152
2019 05 22 21  15 06 38.145   +15 13 33.19  .34771 1.3050 142.3 21.6 2.83 152
2019 05 22 22  15 06 30.770   +15 10 42.32  .34820 1.3055 142.3 21.6 2.86 152
2019 05 22 23  15 06 23.422   +15 07 51.83  .34868 1.3059 142.4 21.6 2.89 152
2019 05 23 00  15 06 16.099   +15 05 01.70  .34917 1.3064 142.4 21.6 2.93 152
2019 05 23 01  15 06 08.803   +15 02 11.95  .34966 1.3069 142.4 21.6 2.96 152
2019 05 23 02  15 06 01.532   +14 59 22.57  .35015 1.3074 142.4 21.6 2.99 152
2019 05 23 03  15 05 54.287   +14 56 33.56  .35064 1.3078 142.4 21.6 3.02 152
2019 05 23 04  15 05 47.067   +14 53 44.91  .35113 1.3083 142.4 21.7 3.06 152
2019 05 23 05  15 05 39.873   +14 50 56.63  .35162 1.3088 142.4 21.7 3.09 152
2019 05 23 06  15 05 32.705   +14 48 08.72  .35211 1.3093 142.5 21.7 3.12 152
2019 05 23 07  15 05 25.561   +14 45 21.17  .35260 1.3097 142.5 21.7 3.16 152